This demonstration page uses our WeatherBlox Daily Observations layout. Learn more.

Left ArrowRight Arrow

47.50024, -111.30081

Hourly Observations for March 13, 2017

Temp ( °F °C ) Dew Point ( °F °C ) Humidity (%) Winds ( mph kmh ) Pressure ( in mb ) Visibility ( mi km ) Precip ( " mm )
12:53 am 00:53 Clear 15 -9.4 11 -11.7 84 84 E 3 6 30.35 1028 10 16 0.00 0.00
1:53 am 01:53 Cloudy 16 -8.9 12 -11.1 84 84 ESE 6 9 30.32 1027 10 16 0.00 0.00
2:53 am 02:53 Cloudy 18 -7.8 13 -10.6 81 81 Calm 30.28 1026 10 16 0.00 0.00
3:53 am 03:53 Cloudy 22 -5.6 18 -7.8 85 85 S 3 6 30.25 1024 10 16 0.00 0.03
4:53 am 04:53 Cloudy 25 -3.9 20 -6.7 81 81 Calm 30.20 1023 10 16 0.00 0.00
5:53 am 05:53 Mostly Cloudy 30 -1.1 22 -5.6 72 72 SSW 13 20 30.17 1022 10 16 0.00 0.00
6:53 am 06:53 Mostly Cloudy 28 -2.2 21 -6.1 75 75 SSW 6 9 30.18 1022 10 16 0.00 0.00
7:53 am 07:53 Sunny 35 1.7 26 -3.3 70 70 SW 14 22 30.15 1021 10 16 0.00 0.00
8:53 am 08:53 Sunny 38 3.3 27 -2.8 65 65 SW 16 26 30.13 1020 10 16 0.00 0.00
9:53 am 09:53 Sunny 43 6.1 28 -2.2 56 56 SW 17 28 30.14 1021 10 16 0.00 0.00
10:53 am 10:53 Sunny 49 9.4 28 -2.2 44 44 SW 22 35 30.11 1020 10 16 0.00 0.00
11:53 am 11:53 Sunny 51 10.6 27 -2.8 39 39 SW 25 41 30.10 1019 10 16 0.00 0.00
12:53 pm 12:53 Sunny 53 11.7 26 -3.3 35 35 SW 23 37 30.06 1018 10 16 0.00 0.00
1:53 pm 13:53 Sunny 56 13.3 25 -3.9 30 30 WSW 22 35 30.04 1017 10 16 0.00 0.00
2:53 pm 14:53 Sunny 55 12.8 26 -3.3 33 33 SW 20 31 30.02 1017 10 16 0.00 0.00
3:53 pm 15:53 Sunny 57 13.9 26 -3.3 30 30 SW 21 33 29.98 1015 10 16 0.00 0.00
4:53 pm 16:53 Sunny 54 12.2 29 -1.7 38 38 WSW 15 24 29.99 1016 10 16 0.00 0.00
5:53 pm 17:53 Sunny 52 11.1 30 -1.1 43 43 WSW 14 22 29.98 1015 10 16 0.00 0.00
6:53 pm 18:53 Partly Cloudy 49 9.4 30 -1.1 48 48 SW 15 24 30.00 1016 10 16 0.00 0.00
7:53 pm 19:53 Mostly Clear 48 8.9 31 -0.6 52 52 SW 17 28 29.99 1016 10 16 0.00 0.00
8:53 pm 20:53 Cloudy 47 8.3 31 -0.6 54 54 SW 17 28 29.99 1016 10 16 0.00 0.00
9:53 pm 21:53 Cloudy 47 8.3 31 -0.6 54 54 SW 16 26 29.98 1015 10 16 0.00 0.00
10:53 pm 22:53 Cloudy 47 8.3 31 -0.6 54 54 SW 18 30 29.96 1014 10 16 0.00 0.00
11:53 pm 23:53 Mostly Clear 47 8.3 31 -0.6 54 54 SW 18 30 29.95 1014 10 16 0.00 0.00

Powered by AerisWeather